Sivas, Turkey

3:00 PM +03 on December 13, 2017 (GMT +0300)
Sivas

Weather History for LTAR - February, 2013

Change the Weather History Date:

Saturday, February 9, 2013

  Actual Average Record
Temperature  
Mean Temperature 44 °F -  
Max Temperature 54 °F 40 °F - ()
Min Temperature 35 °F 25 °F - ()
Degree Days  
Heating Degree Days 20    
Moisture  
Dew Point 31 °F    
Average Humidity 74    
Maximum Humidity 87    
Minimum Humidity 33    
Precipitation  
Precipitation 0.00 in 0.05 in - ()
Sea Level Pressure  
Sea Level Pressure 30.05 in    
Wind  
Wind Speed 18 mph ()    
Max Wind Speed 30 mph    
Max Gust Speed -    
Visibility 6.8 miles    
Events      
T = Trace of Precipitation, MM = Missing Value Source: Averaged Metar Reports

Daily Weather History Graph

Daily Weather History Graph

Search for Another Location

Airport or City:

Trip Planner

Search our weather history database for the weather conditions in past years. The results will help you decide how hot, cold, wet, or windy it might be!

Date:

Astronomy

Feb. 09, 2013 Rise Set
Actual Time 6:32 AM EET 5:01 PM EET
Civil Twilight 6:04 AM EET 5:29 PM EET
Nautical Twilight 5:32 AM EET 6:01 PM EET
Astronomical Twilight 5:00 AM EET 6:32 PM EET
Moon 5:29 AM EET (2/9) 4:19 PM EET (2/9)
Length of Visible Light 11h 25m
Length of Day
10h 29m
Waning Crescent, 1% of the Moon is Illuminated
Feb 9
Waning Crescent
Feb 10
New
Feb 17
First Quarter
Feb 25
Full
Mar 4
Last Quarter

Hourly Weather History & Observations

Time (EET) Temp. Windchill Dew Point Humidity Pressure Visibility Wind Dir Wind Speed Gust Speed Precip Events Conditions
12:50 AM 35.6 °F 23.7 °F 28.4 °F 75% 30.01 in - SSE 24.2 mph - N/A   Clear
1:50 AM 35.6 °F 24.2 °F 28.4 °F 75% 30.01 in - South 21.9 mph - N/A   Clear
2:00 AM 42 °F - 29 °F 47%  in 9 mi South 5.8 mph - -  
2:50 AM 35.6 °F 24.5 °F 28.4 °F 75% 30.01 in 6.2 mi South 20.7 mph - N/A   Partly Cloudy
3:50 AM 35.6 °F 24.5 °F 28.4 °F 75% 30.01 in - SSE 20.7 mph - N/A   Clear
4:50 AM 33.8 °F 21.3 °F 28.4 °F 81% 30.01 in - SSE 24.2 mph - N/A   Clear
5:50 AM 35.6 °F 23.2 °F 30.2 °F 81% 30.01 in - SSE 26.5 mph - N/A   Clear
6:50 AM 35.6 °F 24.0 °F 30.2 °F 81% 30.01 in - SSE 23.0 mph - N/A   Clear
7:50 AM 37.4 °F 25.0 °F 30.2 °F 75% 30.04 in - South 29.9 mph - N/A   Clear
8:00 AM 45 °F - 31 °F 46%  in 9 mi Calm Calm - -   Scattered Clouds
8:50 AM 37.4 °F 25.6 °F 32.0 °F 81% 30.04 in - South 26.5 mph - N/A   Clear
9:50 AM 37.4 °F 26.9 °F 32.0 °F 81% 30.04 in - South 20.7 mph - N/A   Clear
10:50 AM 39.2 °F 28.0 °F 32.0 °F 75% 30.04 in - South 26.5 mph - N/A   Clear
11:50 AM 39.2 °F 28.3 °F 32.0 °F 75% 30.04 in 6.2 mi South 25.3 mph - N/A   Mostly Cloudy
12:50 PM 39.2 °F 28.0 °F 32.0 °F 75% 30.04 in 6.2 mi SSE 26.5 mph - N/A   Mostly Cloudy
1:50 PM 39.2 °F 27.8 °F 32.0 °F 75% 30.04 in 6.2 mi South 27.6 mph - N/A   Mostly Cloudy
2:00 PM 52 °F - 31 °F 33%  in 9 mi SSE 9.2 mph - -   Partly Cloudy
2:50 PM 39.2 °F 28.0 °F 32.0 °F 75% 30.06 in 6.2 mi South 26.5 mph - N/A   Mostly Cloudy
3:50 PM 39.2 °F 29.6 °F 32.0 °F 75% 30.06 in 6.2 mi South 19.6 mph - N/A   Mostly Cloudy
4:50 PM 37.4 °F 27.2 °F 32.0 °F 81% 30.06 in 6.2 mi South 19.6 mph - N/A   Mostly Cloudy
5:50 PM 37.4 °F 27.5 °F 32.0 °F 81% 30.06 in 6.2 mi South 18.4 mph - N/A   Mostly Cloudy
6:50 PM 37.4 °F 28.2 °F 32.0 °F 81% 30.09 in 6.2 mi South 16.1 mph - N/A   Mostly Cloudy
7:50 PM 37.4 °F 27.5 °F 32.0 °F 81% 30.09 in 6.2 mi South 18.4 mph - N/A   Mostly Cloudy
8:00 PM 44 °F - 33 °F 56%  in 9 mi SSE 3.5 mph - -   Mostly Cloudy
8:50 PM 37.4 °F 27.8 °F 32.0 °F 81% 30.06 in 6.2 mi South 17.3 mph - N/A   Mostly Cloudy
9:50 PM 37.4 °F 27.8 °F 32.0 °F 81% 30.09 in 6.2 mi South 17.3 mph - N/A   Mostly Cloudy
10:50 PM 35.6 °F 28.0 °F 32.0 °F 87% 30.09 in 6.2 mi SE 10.4 mph - N/A   Mostly Cloudy
11:50 PM 35.6 °F 26.6 °F 32.0 °F 87% 30.09 in 6.2 mi SSE 13.8 mph - N/A   Mostly Cloudy